Date,TemperatureHighF,TemperatureAvgF,TemperatureLowF,DewpointHighF,DewpointAvgF,DewpointLowF,HumidityHigh,HumidityAvg,HumidityLow,PressureMaxIn,PressureMinIn,WindSpeedMaxMPH,WindSpeedAvgMPH,GustSpeedMaxMPH,PrecipitationSumIn
2013-8-1,79,70,62,66,62,57,97,78,51,29.98,29.91,17,5,22,0.00
2013-8-2,83,70,56,67,62,54,93,76,58,29.97,29.89,16,5,24,0.01
2013-8-3,80,70,60,68,64,55,97,82,58,30.06,29.91,11,4,22,0.50
2013-8-4,76,65,54,60,56,52,92,75,48,30.16,30.06,9,3,22,0.00
2013-8-5,77,67,61,64,60,57,96,81,54,30.10,29.93,7,3,22,0.25
2013-8-6,78,70,62,71,66,60,93,86,78,29.94,29.87,7,3,22,0.00
2013-8-7,83,75,70,74,71,68,97,88,69,29.89,29.82,8,4,22,0.00
2013-8-8,78,72,68,73,70,67,97,93,86,29.92,29.87,11,4,22,0.08
2013-8-9,82,73,68,69,67,65,96,83,59,30.02,29.89,8,3,22,0.00
2013-8-10,83,74,66,71,67,64,95,80,59,30.08,30.01,9,2,22,0.00
2013-8-11,82,72,62,72,65,61,98,82,55,30.09,30.02,8,1,22,0.00
2013-8-12,82,69,62,69,65,61,96,87,62,30.06,29.96,6,1,22,0.00
2013-8-14,68,62,50,54,51,47,94,68,53,30.20,30.14,11,4,22,0.00
2013-8-15,72,63,48,56,53,47,96,70,52,30.19,30.10,1,0,22,0.00
2013-8-16,72,64,55,60,56,52,93,77,55,30.17,30.11,10,2,22,0.00
2013-8-17,77,66,56,62,58,53,92,77,53,30.20,30.12,10,4,22,0.00
2013-8-18,82,70,57,67,60,55,96,75,47,30.18,30.08,6,1,22,0.00
2013-8-19,83,71,60,69,62,57,92,75,51,30.12,30.03,4,0,22,0.00
2013-8-20,84,74,60,68,64,59,95,75,50,30.14,30.05,6,1,22,0.00
2013-8-21,86,75,66,72,67,63,92,78,52,30.12,30.00,9,1,22,0.00
2013-8-22,80,72,67,71,68,65,94,86,73,30.07,29.97,10,3,22,0.10
2013-8-23,80,69,62,70,64,60,98,86,60,30.15,30.04,7,3,22,0.00
2013-8-24,83,70,56,64,58,51,92,70,39,30.26,30.14,7,4,22,0.00
2013-8-25,87,74,59,66,61,57,93,68,41,30.29,30.18,7,2,22,0.00
2013-8-26,87,76,64,74,67,59,88,74,54,30.21,30.04,11,4,22,0.00
2013-8-27,90,79,70,76,72,68,95,80,53,30.03,29.90,12,4,22,0.00
2013-8-28,88,80,73,76,72,69,95,79,66,29.95,29.86,15,7,22,0.00
2013-8-29,86,76,67,75,70,66,98,83,59,30.03,29.95,9,2,22,0.00
2013-8-30,77,68,64,71,66,63,96,93,84,29.97,29.94,6,0,22,0.00